GFSGL_con_sbcape_252.txt.gz
CAPE
489 666 983 1094 1532 1363 1281 1616 1452 1075 1854 1377 1713 1749 1775 1880 1977 1821 2261 2134 1865 1593 1106 903 607 435 633 419 688 1312 1785 1073 1337 1747 999 1283 1232 1703 1690 1379 928 1169 1504
663 772 1020 1085 1175 1618 1425 1392 1317 1429 1826 1872 1776 1618 1761 1853 1460 1915 1944 2291 1800 1738 1980 1501 1431 1404 1527 923 825 1392 1610 1611 1604 2058 1465 1548 1791 1443 1327 1240 1350 875 544
880 817 1020 1194 1176 1162 1427 1485 1392 1482 1690 1977 1805 1677 1686 1829 1811 1655 1930 1792 1685 1586 1786 1952 1975 1957 1761 1493 1465 1680 1955 2115 2026 1852 1900 1383 1698 1866 1665 688 437 473 519
1007 851 990 1151 1340 1210 1034 1268 1388 1357 1751 1717 1802 1724 1686 1836 2014 2010 1995 1925 1699 1444 1655 1944 2029 1903 1928 1983 1692 1756 1844 1764 1872 1888 2143 2312 2064 1911 446 495 943 921 1040
1072 995 935 1150 1145 1185 1124 932 1073 1224 1612 1636 1733 1719 1848 1980 2192 2039 1977 1968 1841 1718 1771 1844 1943 2066 2268 2229 2139 2162 2056 1991 2161 2166 2052 1693 1653 1383 950 780 1039 874 1075
1005 1143 1049 1170 1332 1379 1290 1174 1054 932 1145 1708 1440 1728 1856 2291 2236 2248 2203 2016 1906 1774 1780 1769 1727 1769 1689 1740 1116 630 1203 1728 1935 2051 1901 1615 1372 1220 1226 1143 922 792 1004
1065 1089 1006 1080 1241 1356 1326 1166 1203 1173 905 1161 1772 1724 1784 1852 2176 1937 1626 946 1285 1280 1468 1677 1661 1867 1774 1578 1836 1494 312 92 161 925 973 1060 1023 965 759 870 576 414 573
894 1044 952 939 1193 1123 1206 1123 1137 1243 1317 987 1282 1776 1958 1667 1697 1281 285 90 144 174 243 524 946 1264 1433 1386 1227 1113 1204 1148 889 220 24 465 476 537 340 625 641 563 218
620 562 759 1112 1327 1048 1035 1037 1041 753 858 1515 1457 1142 1259 670 129 7 85 146 282 433 630 742 776 1050 1122 744 253 723 852 934 1054 868 414 114 189 64 28 51 271 185 210
6 146 424 327 378 491 846 1028 1031 1194 1078 914 555 137 236 187 29 2 29 61 124 205 485 812 860 37 11 0 0 0 18 258 353 432 628 843 373 273 7 0 222 372 201
190 140 277 415 96 107 72 134 251 394 272 6 2 28 128 12 0 10 2 2 46 101 288 118 277 21 0 0 1 1 11 98 31 124 270 237 334 562 600 138 35 181 185
201 190 133 191 217 106 78 4 54 143 23 2 25 27 99 0 1 1 1 1 0 6 5 0 0 0 0 0 0 0 1 1 1 1 2 93 199 363 571 421 36 25 24
102 74 59 82 147 291 96 141 19 41 113 10 3 4 0 1 1 1 1 1 1 1 0 0 0 0 2 0 0 70 1 1 5 26 113 234 368 451 321 1 1 0 1
61 10 0 96 128 246 404 281 180 61 14 22 7 45 16 62 1 0 0 0 0 0 1 0 0 0 0 1 4 118 42 4 9 103 439 516 622 856 796 156 1 1 0
0 0 0 0 66 5 1 0 0 0 1 148 47 8 2 0 0 0 0 0 0 1 1 0 0 17 7 0 0 0 0 0 0 1 11 3 34 121 468 338 45 1 0
0 0 0 0 1 0 0 0 1 1 0 0 0 0 0 0 0 1 1 1 1 1 0 0 0 0 1 1 1 0 0 0 1 3 1 0 1 1 8 126 138 16 1
0 0 0 0 0 0 0 0 0 0 1 0 0 0 0 0 0 2 1 1 1 0 0 0 0 0 0 0 0 0 0 0 0 0 1 3 4 3 2 4 131 49 11
0 0 0 0 0 0 0 0 0 0 0 0 0 0 0 0 0 0 1 0 0 1 0 0 0 0 0 0 0 0 0 0 0 1 1 2 2 2 3 3 3 149 77
0 0 0 0 0 0 0 0 0 0 0 0 0 0 0 0 0 0 0 0 0 0 0 0 0 0 0 0 0 0 1 1 1 1 0 1 2 2 1 3 4 2 40
0 0 0 0 0 0 0 0 0 0 0 0 0 0 0 0 0 0 0 0 0 0 0 0 0 0 0 0 0 0 0 0 0 0 0 1 1 1 2 2 4 5 3
0 0 0 0 0 0 0 0 0 0 0 0 0 0 0 0 0 0 0 0 0 0 0 0 0 0 0 0 0 0 0 0 0 0 0 0 0 1 1 2 2 4 3
0 0 0 0 0 0 0 0 0 0 0 0 0 0 0 0 0 0 0 0 0 0 0 0 0 0 0 0 0 0 0 0 0 0 0 0 0 0 1 2 3 2 4
0 0 0 0 0 0 0 0 0 0 0 0 0 0 0 0 0 0 0 0 0 0 0 0 0 0 0 0 0 0 0 0 0 0 0 0 0 0 0 0 0 1 3
0 0 0 0 0 0 0 0 0 0 0 0 0 0 0 0 0 0 0 0 0 0 0 0 0 0 0 0 0 0 0 0 0 0 0 0 0 0 0 0 0 0 0
0 0 0 0 0 0 0 0 0 0 0 0 0 0 0 0 0 0 0 0 0 0 0 0 0 0 0 0 0 0 0 0 0 0 0 0 0 0 0 0 0 0 0
0 0 0 0 0 0 0 0 0 0 0 0 0 0 0 0 0 0 0 0 0 0 0 0 0 0 0 0 0 0 0 0 0 0 0 0 0 0 0 0 0 0 0

GFSGL_con_sbcape_258.txt.gz
CAPE
29 50 215 454 662 682 759 533 422 505 394 474 594 783 923 1105 1094 1242 1446 1411 1287 1435 1258 1111 1115 735 477 341 129 130 221 23 382 1211 877 1334 1603 1723 1875 1815 1600 1976 2001
60 50 65 260 533 860 977 978 668 552 448 502 539 785 1064 1283 1102 1135 1347 1774 1903 1912 1833 1735 1705 1474 1333 1236 1073 1124 788 597 886 1477 1907 1890 1797 1987 1824 1826 2093 1732 1301
122 125 92 166 519 744 994 1180 1308 1090 804 841 899 949 1088 1373 1437 1410 1587 1657 1723 1883 2026 2008 1915 1698 1685 1608 1548 1456 1538 1535 1170 1237 1680 1823 1648 1653 1797 1801 1613 1387 961
200 260 234 161 447 610 922 1017 1082 1307 1386 1147 1517 1550 1564 1533 1482 1542 1566 1735 1780 1804 1822 1810 1783 1529 1573 1768 1713 1837 1833 1647 1608 1432 1592 1646 1764 1844 1124 1031 1341 1570 1342
369 377 365 272 303 469 822 1121 1139 1100 1279 1292 1296 1715 1723 1641 1533 1628 1658 1678 1780 1793 1780 1792 1667 1496 1196 1260 1740 1934 1836 1848 1812 1771 1711 1728 1463 1584 1643 1287 932 1307 1121
527 564 509 360 305 436 694 779 1028 1172 1227 1329 1115 1295 1581 1510 1415 1238 1340 1980 1870 1941 1924 1910 1702 1198 1073 602 233 217 678 1875 1426 1315 1468 1300 1453 1428 1372 1141 989 1014 698
579 659 609 469 445 453 725 721 770 826 847 1132 1384 1319 1563 1643 1399 1137 511 1507 1620 1787 1707 1556 1816 1842 1212 1530 1325 569 16 0 32 1054 1057 1041 1004 961 1054 1103 815 630 550
727 786 727 619 620 762 863 939 945 792 596 615 732 1169 1321 1395 966 673 3 48 540 779 793 616 570 806 769 584 1089 986 1155 1154 548 47 163 811 852 917 996 875 921 754 227
867 760 967 884 694 1022 1160 716 425 246 324 275 182 261 598 304 22 29 1 194 323 377 366 374 376 391 405 219 75 551 695 723 466 60 14 18 19 13 1 56 244 217 527
3 183 384 507 461 242 83 72 126 263 39 1 1 0 26 80 0 1 13 200 229 233 227 124 55 32 1 1 2 5 5 30 3 3 55 44 30 50 72 29 490 386 238
0 9 8 77 32 3 32 46 102 6 3 1 1 1 1 4 36 2 1 1 8 20 24 2 47 0 1 1 1 2 2 0 0 2 3 2 11 14 193 148 40 189 193
0 9 11 146 67 60 89 72 36 4 3 0 2 7 1 0 1 1 1 1 1 0 1 26 2 1 2 2 1 0 1 1 2 2 5 7 45 89 129 142 108 29 84
0 0 23 180 2 46 78 14 65 63 12 9 1 0 0 2 1 1 1 1 1 1 4 2 1 1 1 1 2 1 0 8 8 4 10 36 14 52 117 69 3 1 1
0 0 13 141 154 174 58 140 164 47 37 17 8 5 3 0 0 3 1 0 0 0 0 2 0 1 1 1 2 2 3 4 6 7 8 12 21 13 16 15 64 2 1
0 0 8 3 17 1 4 2 5 1 11 18 3 6 2 12 1 1 0 0 0 0 0 3 1 2 2 2 3 3 3 3 4 3 3 7 8 10 10 10 12 16 2
0 0 0 13 4 0 0 0 1 1 2 2 2 11 0 1 1 0 0 2 1 1 0 3 2 4 3 2 1 1 2 1 3 3 3 4 4 4 3 3 7 10 14
0 0 0 0 0 0 0 0 0 0 1 0 0 0 0 0 1 1 1 1 1 1 0 1 1 1 1 1 1 1 1 0 0 0 1 2 3 3 4 4 3 6 5
0 0 0 0 0 0 0 0 0 0 0 0 0 0 1 1 1 1 1 1 0 0 0 0 0 0 0 1 0 0 0 0 0 0 0 0 2 2 3 4 5 5 6
0 0 0 0 0 0 0 0 0 0 0 0 0 0 1 1 1 1 1 0 0 0 0 0 0 0 0 0 0 1 1 0 0 0 0 0 0 3 1 6 4 1 1
0 0 0 0 0 0 0 0 0 0 0 0 0 0 0 0 0 0 0 0 0 0 0 0 0 0 0 0 0 0 0 0 0 0 0 0 0 0 1 1 0 0 2
0 0 0 0 0 0 0 0 0 0 0 0 0 0 0 0 0 0 0 0 0 0 0 0 0 0 0 0 0 0 0 0 0 0 0 0 0 0 0 2 0 0 0
0 0 0 0 0 0 0 0 0 0 0 0 0 0 0 0 0 0 0 0 0 0 0 0 0 0 0 0 0 0 0 0 0 0 0 0 0 0 0 0 0 0 0
0 0 0 0 0 0 0 0 0 0 0 0 0 0 0 0 0 0 0 0 0 0 0 0 0 0 0 0 0 0 0 0 0 0 0 0 0 0 0 0 0 0 0
0 0 0 0 0 0 0 0 0 0 0 0 0 0 0 0 0 0 0 0 0 0 0 6 15 17 0 0 0 0 0 0 0 0 0 0 0 0 0 0 0 0 0
0 0 0 0 0 0 0 0 0 0 0 0 0 0 0 0 0 0 0 0 0 0 0 1 29 41 28 0 0 0 0 0 0 0 0 0 0 0 0 0 0 0 0
0 0 0 0 0 0 0 0 0 0 0 0 0 0 0 0 0 0 0 0 0 0 0 0 0 11 22 16 11 0 0 0 0 0 0 0 0 0 0 0 0 0 0

GFSGL_con_sbcape_261.txt.gz
CAPE
954 1044 1220 1091 1414 1596 1617 1865 1975 2018 2217 2191 2213 2230 2333 2384 2463 2448 2391 2212 2316 2480 2360 2563 2849 2836 2425 2116 2009 1776 1648 1411 1685 2142 2294 2315 2672 2679 2423 2421 2192 2587 1748
1127 1257 1333 1211 1412 1239 1782 1660 1808 2038 2149 2195 2166 2210 2298 2323 2420 2474 2395 1849 2169 2451 2469 2725 2818 2743 3031 3137 2743 2689 2388 2871 2220 2490 2564 2222 2839 2315 2540 2812 2250 1777 1820
1222 999 956 1004 1104 1223 1335 1993 1996 2065 2151 1952 2025 2126 2195 2202 2284 2349 2115 1610 2051 2348 2629 2807 2778 2899 3004 3255 3352 2181 1667 2586 2421 2303 2325 2002 2076 2407 2574 2384 2378 2531 1594
1144 825 1167 904 1111 1144 1872 2239 2458 2463 2242 2277 2208 2323 2374 2354 2311 2469 2486 2812 2862 2659 2667 2785 2668 2889 2953 3145 3150 3346 3350 2857 3274 2586 2001 2120 1797 2251 2329 2028 1703 936 1540
1255 1082 1331 1389 1413 1605 1887 2124 2277 2668 2514 2629 2663 2639 2640 2586 2148 2534 2938 2923 2961 2882 2653 2755 2614 2315 2005 1913 2774 2907 3282 2780 2446 2728 1956 2012 1528 1616 2186 1574 1699 1482 1855
1210 1068 1426 1545 1566 1807 2006 2199 2557 2607 2880 3287 3053 2536 2756 2293 1676 1572 1942 2533 2580 2940 2311 2429 2201 1701 1598 1115 524 221 653 2508 2499 1974 1768 1860 2268 2334 1685 1312 1242 1407 1286
1044 1224 688 1581 1348 1280 1816 1843 2434 2623 2724 2936 3098 2811 2357 2686 1436 896 503 2165 2407 2374 2197 2277 1544 911 1598 1950 1297 900 325 20 0 1662 2288 2244 2303 2531 2436 1919 2509 1965 1843
1274 1253 1258 1246 1302 1078 1243 1804 2067 1948 2436 2608 2592 2935 2979 2331 1183 719 47 1455 2012 2033 1786 1844 2174 2026 1673 982 705 485 629 820 1092 1194 1233 1334 1773 2214 2568 1927 2070 1782 1664
1163 1430 1772 1996 1397 1069 1160 1356 1766 1911 1785 2169 1786 2008 1980 1968 156 217 1 960 1359 1718 1814 1703 1515 977 153 1 108 220 345 345 179 106 6 0 0 0 5 103 490 877 497
1354 1680 1602 1412 1246 1359 1288 1489 1701 1790 1547 1355 1107 1439 1250 1421 6 70 1 1618 1739 1873 1947 1314 1 139 1 0 11 24 44 99 97 19 1 11 31 85 84 65 81 385 495
31 68 116 137 274 841 481 603 286 171 215 276 392 674 931 1075 425 2 2 761 883 977 521 203 155 1 1 1 0 5 47 2 1 6 7 6 32 295 468 315 15 65 208
29 1 4 16 43 29 109 20 106 14 5 73 49 63 11 75 1 1 0 0 0 4 33 112 40 0 2 0 1 0 0 1 3 7 9 6 51 97 71 68 18 10 52
1 8 0 12 21 13 44 172 133 31 7 6 27 76 83 39 70 0 1 1 1 1 21 1 1 0 1 0 1 1 0 3 8 5 11 8 13 15 11 9 21 4 13
15 14 113 65 0 0 16 316 212 83 117 45 92 280 250 80 107 22 4 2 2 1 0 4 0 0 1 1 2 2 3 2 3 5 4 13 9 11 17 19 47 147 65
38 99 34 6 20 11 4 89 147 6 17 165 311 243 109 97 133 42 39 114 7 0 0 4 13 9 4 4 3 3 2 4 4 2 9 9 7 6 8 12 16 50 70
1 4 3 7 10 15 8 2 2 5 1 1 1 67 2 1 1 1 0 1 0 1 0 9 2 3 2 3 3 4 4 1 2 4 4 3 4 5 4 3 8 22 48
0 0 0 0 0 0 0 1 3 0 1 0 0 1 2 1 2 2 2 1 1 0 3 3 2 0 0 0 3 5 7 4 0 1 0 1 2 5 6 6 3 4 5
0 0 0 0 0 0 0 0 0 0 0 0 0 0 0 2 1 1 1 0 0 0 0 0 0 0 0 0 0 0 0 1 0 0 0 0 0 0 4 6 8 8 9
0 0 0 0 0 0 0 0 0 0 0 0 0 0 0 1 0 0 0 0 0 0 0 0 0 0 0 0 0 0 1 0 0 0 0 0 0 0 0 3 2 0 0
0 0 0 0 0 0 0 0 0 0 0 0 0 0 0 0 0 0 0 0 0 0 0 0 0 0 0 0 0 0 0 0 0 0 0 0 0 0 0 0 0 0 0
0 0 0 0 0 0 0 0 0 0 0 0 0 0 0 0 0 0 0 0 0 0 0 0 2 0 0 0 0 0 0 0 0 0 0 0 0 0 0 0 0 0 0
0 0 0 0 0 0 0 0 0 0 0 0 0 0 0 0 0 0 0 0 0 0 0 0 35 8 0 0 0 0 0 0 0 0 0 0 0 0 0 0 0 0 0
0 0 0 0 0 0 0 0 0 0 0 0 0 0 0 0 0 0 0 0 0 0 8 18 47 120 44 5 0 0 0 0 0 0 0 0 0 0 0 0 0 0 0
0 0 0 0 0 0 0 0 0 0 0 0 0 0 0 0 0 0 0 0 0 0 0 7 27 64 220 122 44 20 0 0 0 0 0 0 0 0 0 0 0 0 0
0 0 0 0 0 0 0 0 0 0 0 0 0 0 0 0 0 0 0 0 0 0 0 0 6 56 141 307 246 121 49 0 0 0 0 0 0 0 0 0 0 0 0
0 0 0 0 0 0 0 0 0 0 0 0 0 0 0 0 0 0 0 0 0 0 0 0 0 3 18 62 160 197 30 0 0 0 0 0 0 0 0 0 0 0 0

GFSGL_con_sbcape_264.txt.gz
CAPE
1945 1843 2295 1976 2097 1968 1565 2033 2280 2018 2474 2872 2710 2742 2536 2246 2065 2719 2816 2203 1865 2506 2619 2006 2591 2762 2468 1565 1066 1053 1015 993 1069 992 784 1277 2631 2614 2058 2109 2398 2473 1297
2241 2659 2110 1681 1767 1540 1786 1806 1951 2207 2258 2541 2805 2958 2794 2761 2865 2994 2865 2093 2300 2556 2505 2651 2608 2080 2552 3147 2175 2224 1855 2114 1548 2114 1920 1272 2307 3180 2577 3002 2607 2194 1701
2065 1678 1520 1429 1377 1284 1273 1703 1984 2176 1998 1856 2528 2723 2853 2778 2904 3084 3117 2786 2447 2194 2369 2472 2701 2278 2678 2238 2104 1673 1230 1058 1714 1410 1167 978 1174 1379 1800 2887 2826 3245 1824
1317 1501 1839 1390 1362 1229 1855 2183 2235 2795 2358 2266 2322 2437 2654 2728 2801 2903 2977 3000 2842 2580 2577 3107 2818 2314 2352 2299 2119 2346 2354 2332 2580 1751 1440 1056 817 1344 1214 1510 1918 2150 1933
1780 1462 2058 2078 2241 2146 2345 2525 2720 2924 2498 2690 2704 2405 2530 2582 2442 2575 2772 2874 3291 2146 2012 2537 2247 1862 1734 1581 1705 2153 2639 1772 984 878 698 587 432 607 1110 560 856 802 1132
1395 1555 2313 2528 2637 2913 3083 3225 3647 3435 3659 3731 3396 2774 2527 2197 1451 1377 1540 2392 2886 2465 1738 1835 1876 1475 1320 1343 1059 1043 1136 1952 1555 1362 1044 1128 2679 1818 1299 1059 923 745 819
1314 1715 1970 2508 1965 2155 2392 2616 3154 3525 3754 3933 3910 3703 3171 2734 1270 746 1121 2133 1808 1751 2143 2010 1772 1338 911 1024 644 533 723 418 151 1658 1737 1892 2587 2077 2689 1744 2604 2298 1573
1098 1568 1675 1675 1817 1781 1606 2186 3043 2694 3155 3204 3436 3757 3618 2839 1491 990 577 1957 1724 1882 1806 1908 2139 1791 1765 1309 1766 1570 1088 756 573 432 879 1683 1827 1366 1182 1190 1678 1851 1942
1641 1764 1498 1379 1822 1419 1342 1711 1871 2821 3151 2948 2653 3305 3066 3014 633 793 133 1697 1409 1677 2227 2983 2683 2445 849 341 1184 869 718 485 209 123 165 25 0 0 1 114 501 700 796
1903 1847 2056 2261 1577 1350 1432 2206 2558 2185 2881 2290 2610 2573 1936 2960 79 1 0 1260 1270 1240 2038 2036 570 1019 1 0 284 671 600 559 375 271 357 137 16 144 0 50 502 611 492
1847 2159 1967 1871 2067 2362 2201 1456 1571 2269 2401 2557 2483 2454 2416 1629 36 0 0 998 786 578 1238 1984 752 1 1 1 0 401 308 336 160 336 301 241 205 325 255 280 583 358 280
1321 1454 581 822 548 718 653 630 474 310 885 1070 678 1081 1670 687 1 1 1 2 0 134 281 344 99 0 2 1 0 4 0 0 183 299 369 269 204 214 121 56 31 19 30
5 38 41 5 108 428 64 105 126 129 59 26 27 19 35 187 20 0 2 1 1 16 137 54 1 1 1 0 1 1 1 120 248 303 298 101 7 11 10 16 24 28 0
21 4 20 1 9 31 38 49 64 140 41 77 29 19 35 108 103 56 7 1 1 0 2 3 0 0 1 0 1 0 54 104 117 124 3 6 5 4 5 8 10 12 69
196 351 246 259 5 19 5 9 88 15 62 110 59 107 173 199 233 151 115 148 216 79 15 6 3 3 12 11 8 5 3 15 29 9 6 2 1 2 2 6 7 15 98
21 5 18 8 15 17 11 3 1 0 1 1 1 12 5 1 2 2 2 0 0 0 13 195 58 40 34 11 8 13 8 0 3 3 5 4 2 2 1 3 5 11 17
0 1 0 0 0 0 0 40 38 0 0 0 0 1 1 0 2 0 0 0 0 1 0 423 195 36 21 4 0 0 0 0 0 0 1 0 0 1 0 2 6 8 9
0 0 0 0 0 0 3 0 0 0 0 9 0 0 0 0 1 1 0 1 3 1 72 6 1 0 0 0 0 0 0 0 0 0 0 0 0 0 0 0 2 4 3
0 0 0 0 0 0 0 0 0 0 0 0 0 0 0 0 1 1 0 4 39 14 9 10 0 0 0 0 0 0 0 0 0 0 0 0 0 0 0 0 0 0 0
0 0 0 0 0 0 0 0 0 0 0 0 0 0 0 0 13 32 0 8 16 13 6 2 3 0 0 0 0 0 0 0 0 0 0 0 0 0 0 0 0 0 0
0 0 0 0 0 0 0 0 0 0 0 0 0 0 0 0 0 0 0 63 83 50 41 29 35 42 6 0 0 0 0 0 0 0 0 0 0 0 0 0 0 0 0
0 0 0 0 0 0 0 0 0 0 0 0 0 0 0 0 0 0 0 0 16 46 85 67 41 42 62 40 20 0 0 0 0 0 0 0 0 0 0 0 0 0 0
0 0 0 0 0 0 0 0 0 0 0 0 0 0 0 0 0 0 0 0 0 9 37 53 58 52 63 99 79 46 8 6 0 0 0 0 0 0 0 0 0 0 0
0 0 0 0 0 0 0 0 0 0 0 0 0 0 0 0 0 0 0 0 0 0 2 5 28 60 86 94 140 121 91 36 13 0 0 0 0 0 0 0 0 0 0
0 0 0 0 0 0 0 0 0 0 0 0 0 0 0 0 0 0 1 6 7 5 4 11 14 28 26 72 119 197 75 0 12 1 8 4 4 7 0 5 11 5 1
0 0 0 0 0 0 0 0 2 1 0 0 1 1 1 1 0 1 1 1 1 3 7 4 5 4 1 6 21 16 7 0 0 0 0 8 29 33 21 16 21 22 32